Change the Weather History Date:

Thursday, December 1, 2011

  Actual Average Record
Temperature  
Mean Temperature 70 °F -  
Max Temperature 77 °F 79 °F 86 °F (2014)
Min Temperature 64 °F 64 °F 62 °F (1997)
Cooling Degree Days 6    
Growing Degree Days 20 (Base 50)    
Moisture  
Dew Point 58 °F    
Average Humidity 68    
Maximum Humidity 83    
Minimum Humidity 54    
Precipitation  
Precipitation 0.00 in 0.04 in - ()
Sea Level Pressure  
Sea Level Pressure 29.96 in    
Wind  
Wind Speed 7 mph ()    
Max Wind Speed 16 mph    
Max Gust Speed -    
Visibility 6.9 miles    
Events      
Averages and records for this station are not official NWS values.
T = Trace of Precipitation, MM = Missing Value Source: Averaged Metar Reports

Daily Weather History Graph

Daily Weather History Graph

Search for Another Location

Airport or City:

Trip Planner

Search our weather history database for the weather conditions in past years. The results will help you decide how hot, cold, wet, or windy it might be!

Date:

Astronomy

Dec. 01, 2011 Rise Set
Actual Time 5:38 AM CST 5:13 PM CST
Civil Twilight 5:15 AM CST 5:35 PM CST
Nautical Twilight 4:49 AM CST 6:02 PM CST
Astronomical Twilight 4:23 AM CST 6:27 PM CST
Moon 11:07 AM CST (12/1) 11:20 PM CST (12/1)
Length of Visible Light 12h 20m
Length of Day
11h 35m
Waxing Crescent, 43% of the Moon is Illuminated
Dec 1
Waxing Crescent
Dec 2
First Quarter
Dec 10
Full
Dec 17
Last Quarter
Dec 24
New

Hourly Weather History & Observations

Time (CST) Temp. Dew Point Humidity Pressure Visibility Wind Dir Wind Speed Gust Speed Precip Events Conditions
12:00 AM 67 °F 60 °F 73% 29.89 in 12 mi East 6.9 mph - -   Scattered Clouds
12:00 AM 68.0 °F 60.8 °F 78% 29.99 in 6.2 mi East 6.9 mph - N/A   Partly Cloudy
1:00 AM 66.2 °F 60.8 °F 83% 29.98 in 6.2 mi East 8.1 mph - N/A   Partly Cloudy
2:00 AM 66.2 °F 59.0 °F 78% 29.95 in 6.2 mi East 4.6 mph - N/A   Partly Cloudy
3:00 AM 66 °F 57 °F 66% 29.85 in 12 mi East 5.8 mph - -  
3:00 AM 66.2 °F 57.2 °F 73% 29.95 in 6.2 mi East 5.8 mph - N/A   Unknown
4:00 AM 68.0 °F 57.2 °F 68% 29.96 in 6.2 mi East 9.2 mph - N/A   Partly Cloudy
5:00 AM 66.2 °F 57.2 °F 73% 29.97 in 6.2 mi East 8.1 mph - N/A   Partly Cloudy
6:00 AM 66 °F 57 °F 65% 29.90 in 12 mi East 10.4 mph - -   Scattered Clouds
6:00 AM 66.2 °F 57.2 °F 73% 29.97 in 6.2 mi East 10.4 mph - N/A   Partly Cloudy
7:00 AM 68.0 °F 57.2 °F 68% 30.01 in 6.2 mi ENE 6.9 mph - N/A   Scattered Clouds
8:00 AM 69.8 °F 59.0 °F 68% 30.02 in 6.2 mi East 8.1 mph - N/A   Scattered Clouds
9:00 AM 71 °F 59 °F 58% 29.91 in 9 mi ESE 6.9 mph - -   Partly Cloudy
9:00 AM 71.6 °F 59.0 °F 64% 30.02 in 6.2 mi ESE 6.9 mph - N/A   Scattered Clouds
10:00 AM 71.6 °F 59.0 °F 64% 30.01 in 6.2 mi East 11.5 mph - N/A   Scattered Clouds
11:00 AM 75.2 °F 59.0 °F 57% 29.99 in 6.2 mi ESE 9.2 mph - N/A   Scattered Clouds
12:00 PM 75.2 °F 60.8 °F 61% 29.97 in 6.2 mi ESE 9.2 mph - N/A   Scattered Clouds
1:00 PM 73.4 °F 59.0 °F 61% 29.94 in 6.2 mi ESE 10.4 mph - N/A   Scattered Clouds
2:00 PM 73.4 °F 59.0 °F 61% 29.92 in 6.2 mi ESE 8.1 mph - N/A   Scattered Clouds
3:00 PM 77.0 °F 59.0 °F 54% 29.92 in 6.2 mi NNW 4.6 mph - N/A   Mostly Cloudy
4:00 PM 71.6 °F 57.2 °F 60% 29.93 in 6.2 mi NE 8.1 mph - N/A   Scattered Clouds
5:00 PM 71.6 °F 57.2 °F 60% 29.94 in 6.2 mi ESE 6.9 mph - N/A   Scattered Clouds
6:00 PM 68.0 °F 59.0 °F 73% 29.96 in 6.2 mi East 4.6 mph - N/A   Scattered Clouds
7:00 PM 66.2 °F 57.2 °F 73% 29.99 in 6.2 mi ENE 11.5 mph - N/A   Partly Cloudy
8:00 PM 66.2 °F 55.4 °F 68% 30.01 in 6.2 mi East 6.9 mph - N/A   Partly Cloudy
9:00 PM 66.2 °F 57.2 °F 73% 30.02 in 6.2 mi East 11.5 mph - N/A   Partly Cloudy
10:00 PM 64.4 °F 55.4 °F 73% 30.02 in 6.2 mi East 16.1 mph - N/A   Partly Cloudy
11:00 PM 64.4 °F 55.4 °F 73% 30.02 in 6.2 mi East 13.8 mph - N/A   Partly Cloudy